Location: Newark
(23.3970°S, 47.6010°W)
Time: 09:39:27
(UTC+00:00)

Tiros 1 despin weight - Pass Details

Date: 24 February 2020
Orbit: 593 x 642 km, 48.2° (Epoch: 08 April)

Event Time Altitude Azimuth Distance (km) Brightness Sun altitude
Rises 21:28:10 0° 218° (SW) 2,962 ? 2.7°
Reaches altitude 10° 21:30:35 10° 213° (SSW) 2,046 ? 2.1°
Maximum altitude 21:35:10 49° 137° (SE) 829 ? 1.1°
Drops below altitude 10° 21:39:40 10° 62° (ENE) 2,011 ? 0.1°
Sets 21:42:01 0° 56° (ENE) 2,906 ? -0.4°
